• In Italy
  • List of Countries
  • For 7 days
  • Water Temperature
  • Satellite Maps
  • Weather Map
  • Weather Widgets
  • user-avatar
    Login

    Hourly Weather Kandahar

    Today, 18 December, Monday

    Time Temperature Precipitation Wind Pressure Humidity
    00:00 +12°C° 0 mm 2 mps 679 mmHg 24%
    01:00 +10°C° 0 mm 2 mps 679 mmHg 24%
    02:00 +10°C° 0 mm 2 mps 679 mmHg 24%
    03:00 +10°C° 0 mm 2 mps 679 mmHg 24%
    04:00 +10°C° 0 mm 2 mps 679 mmHg 24%
    05:00 +10°C° 0 mm 2 mps 679 mmHg 24%
    06:00 +10°C° 0 mm 3 mps 679 mmHg 24%
    07:00 +10°C° 0 mm 3 mps 679 mmHg 24%
    08:00 +12°C° 0 mm 3 mps 680 mmHg 22%
    09:00 +14°C° 0 mm 3 mps 680 mmHg 19%
    10:00 +17°C° 0 mm 3 mps 681 mmHg 15%
    11:00 +18°C° 0 mm 2 mps 681 mmHg 14%
    12:00 +19°C° 0 mm 2 mps 680 mmHg 14%
    13:00 +20°C° 0 mm 2 mps 680 mmHg 13%
    14:00 +20°C° 0 mm 1 mps 680 mmHg 13%
    15:00 +19°C° 0 mm 1 mps 679 mmHg 14%
    16:00 +18°C° 0 mm 1 mps 679 mmHg 15%
    17:00 +16°C° 0 mm 1 mps 679 mmHg 16%
    18:00 +15°C° 0 mm 1 mps 679 mmHg 17%
    19:00 +14°C° 0 mm 1 mps 679 mmHg 19%
    20:00 +13°C° 0 mm 1 mps 679 mmHg 19%
    21:00 +13°C° 0 mm 1 mps 679 mmHg 19%
    22:00 +13°C° 0 mm 2 mps 679 mmHg 20%
    23:00 +13°C° 0 mm 2 mps 679 mmHg 20%

    Tomorrow, 19 December, Tuesday

    Time Temperature Precipitation Wind Pressure Humidity
    00:00 +12°C° 0 mm 2 mps 679 mmHg 21%
    01:00 +12°C° 0 mm 2 mps 679 mmHg 21%
    02:00 +12°C° 0 mm 2 mps 679 mmHg 22%
    03:00 +12°C° 0 mm 2 mps 679 mmHg 22%
    04:00 +10°C° 0 mm 3 mps 679 mmHg 23%
    05:00 +10°C° 0 mm 3 mps 679 mmHg 23%
    06:00 +10°C° 0 mm 3 mps 679 mmHg 23%
    07:00 +10°C° 0 mm 3 mps 679 mmHg 24%
    08:00 +12°C° 0 mm 3 mps 680 mmHg 21%
    09:00 +14°C° 0 mm 3 mps 681 mmHg 18%
    10:00 +17°C° 0 mm 4 mps 681 mmHg 16%
    11:00 +17°C° 0 mm 3 mps 681 mmHg 16%
    12:00 +18°C° 0 mm 3 mps 681 mmHg 16%
    13:00 +19°C° 0 mm 3 mps 680 mmHg 16%
    14:00 +18°C° 0 mm 3 mps 680 mmHg 18%
    15:00 +17°C° 0 mm 2 mps 680 mmHg 21%
    16:00 +17°C° 0 mm 2 mps 680 mmHg 23%
    17:00 +15°C° 0 mm 2 mps 680 mmHg 28%
    18:00 +14°C° 0 mm 2 mps 680 mmHg 32%
    19:00 +13°C° 0 mm 1 mps 680 mmHg 37%
    20:00 +13°C° 0 mm 1 mps 680 mmHg 37%
    21:00 +13°C° 0 mm 1 mps 680 mmHg 38%
    22:00 +12°C° 0 mm 2 mps 680 mmHg 39%
    23:00 +12°C° 0 mm 1 mps 680 mmHg 39%

    Day after tomorrow, 20 December, Wednesday

    Time Temperature Precipitation Wind Pressure Humidity
    00:00 +12°C° 0 mm 1 mps 680 mmHg 40%
    01:00 +11°C° 0 mm 1 mps 680 mmHg 40%
    02:00 +11°C° 0 mm 1 mps 679 mmHg 40%
    03:00 +11°C° 0 mm 1 mps 679 mmHg 40%
    04:00 +10°C° 0 mm 1 mps 679 mmHg 40%
    05:00 +10°C° 0 mm 1 mps 680 mmHg 39%
    06:00 +10°C° 0 mm 1 mps 680 mmHg 39%
    07:00 +9°C° 0 mm 2 mps 681 mmHg 39%
    08:00 +12°C° 0 mm 2 mps 681 mmHg 34%
    09:00 +14°C° 0 mm 2 mps 682 mmHg 29%
    10:00 +16°C° 0 mm 2 mps 683 mmHg 24%
    11:00 +17°C° 0 mm 2 mps 682 mmHg 25%
    12:00 +18°C° 0 mm 1 mps 682 mmHg 25%
    13:00 +17°C° 0 mm 0 mps 681 mmHg 25%
    14:00 +19°C° 0 mm 1 mps 681 mmHg 26%
    15:00 +18°C° 0 mm 1 mps 681 mmHg 27%
    16:00 +18°C° 0 mm 1 mps 680 mmHg 28%
    17:00 +16°C° 0 mm 1 mps 681 mmHg 30%
    18:00 +15°C° 0 mm 1 mps 681 mmHg 33%
    19:00 +13°C° 0 mm 1 mps 681 mmHg 35%
    20:00 +13°C° 0 mm 1 mps 681 mmHg 36%
    21:00 +12°C° 0 mm 1 mps 681 mmHg 38%
    22:00 +11°C° 0 mm 1 mps 681 mmHg 39%
    23:00 +11°C° 0 mm 1 mps 681 mmHg 41%

    21 December, Thursday

    Time Temperature Precipitation Wind Pressure Humidity
    00:00 +11°C° 0 mm 1 mps 681 mmHg 43%
    01:00 +10°C° 0 mm 1 mps 681 mmHg 44%
    02:00 +10°C° 0 mm 1 mps 681 mmHg 46%
    03:00 +9°C° 0 mm 1 mps 680 mmHg 48%
    04:00 +9°C° 0 mm 1 mps 680 mmHg 49%
    05:00 +9°C° 0 mm 1 mps 681 mmHg 50%
    06:00 +9°C° 0 mm 1 mps 681 mmHg 51%
    07:00 +9°C° 0 mm 1 mps 681 mmHg 52%
    08:00 +11°C° 0 mm 1 mps 682 mmHg 45%
    09:00 +13°C° 0 mm 1 mps 683 mmHg 39%
    10:00 +15°C° 0 mm 1 mps 683 mmHg 33%
    11:00 +16°C° 0 mm 1 mps 683 mmHg 31%
    12:00 +17°C° 0 mm 2 mps 682 mmHg 29%
    13:00 +18°C° 0 mm 2 mps 682 mmHg 27%
    14:00 +17°C° 0 mm 2 mps 681 mmHg 28%
    15:00 +17°C° 0 mm 2 mps 681 mmHg 28%
    16:00 +17°C° 0 mm 2 mps 681 mmHg 28%
    17:00 +15°C° 0 mm 2 mps 681 mmHg 31%
    18:00 +14°C° 0 mm 2 mps 681 mmHg 35%
    19:00 +13°C° 0 mm 2 mps 681 mmHg 38%
    20:00 +12°C° 0 mm 1 mps 681 mmHg 40%
    21:00 +11°C° 0 mm 1 mps 681 mmHg 41%
    22:00 +11°C° 0 mm 1 mps 680 mmHg 43%
    23:00 +10°C° 0 mm 1 mps 680 mmHg 44%

    22 December, Friday

    Time Temperature Precipitation Wind Pressure Humidity
    00:00 +10°C° 0 mm 1 mps 680 mmHg 45%
    01:00 +9°C° 0 mm 1 mps 679 mmHg 46%
    02:00 +8°C° 0 mm 0 mps 679 mmHg 47%
    03:00 +7°C° 0 mm 0 mps 679 mmHg 48%
    04:00 +7°C° 0 mm 0 mps 678 mmHg 49%
    05:00 +7°C° 0 mm 0 mps 679 mmHg 49%
    06:00 +7°C° 0 mm 0 mps 679 mmHg 49%
    07:00 +7°C° 0 mm 0 mps 679 mmHg 49%
    08:00 +9°C° 0 mm 0 mps 680 mmHg 43%
    09:00 +11°C° 0 mm 0 mps 681 mmHg 37%
    10:00 +14°C° 0 mm 0 mps 681 mmHg 30%
    11:00 +15°C° 0 mm 0 mps 681 mmHg 28%
    12:00 +16°C° 0 mm 1 mps 680 mmHg 26%
    13:00 +18°C° 0 mm 1 mps 680 mmHg 24%
    14:00 +18°C° 0 mm 1 mps 679 mmHg 24%
    15:00 +18°C° 0 mm 1 mps 679 mmHg 24%
    16:00 +18°C° 0 mm 1 mps 679 mmHg 24%
    17:00 +15°C° 0 mm 1 mps 679 mmHg 27%
    18:00 +14°C° 0 mm 1 mps 678 mmHg 30%
    19:00 +12°C° 0 mm 1 mps 678 mmHg 33%
    20:00 +11°C° 0 mm 1 mps 678 mmHg 35%
    21:00 +11°C° 0 mm 1 mps 678 mmHg 36%
    22:00 +9°C° 0 mm 0 mps 678 mmHg 37%
    23:00 +8°C° 0 mm 0 mps 677 mmHg 38%

    23 December, Saturday

    Time Temperature Precipitation Wind Pressure Humidity
    00:00 +8°C° 0 mm 0 mps 677 mmHg 39%
    01:00 +8°C° 0 mm 0 mps 677 mmHg 40%
    02:00 +7°C° 0 mm 0 mps 676 mmHg 41%
    03:00 +7°C° 0 mm 0 mps 676 mmHg 42%
    04:00 +6°C° 0 mm 0 mps 676 mmHg 43%
    05:00 +7°C° 0 mm 0 mps 676 mmHg 43%
    06:00 +7°C° 0 mm 0 mps 676 mmHg 43%
    07:00 +7°C° 0 mm 0 mps 676 mmHg 43%
    08:00 +9°C° 0 mm 0 mps 677 mmHg 37%
    09:00 +11°C° 0 mm 0 mps 678 mmHg 32%
    10:00 +14°C° 0 mm 0 mps 679 mmHg 26%
    11:00 +14°C° 0 mm 0 mps 678 mmHg 24%
    12:00 +16°C° 0 mm 1 mps 677 mmHg 23%
    13:00 +18°C° 0 mm 1 mps 677 mmHg 21%
    14:00 +18°C° 0 mm 1 mps 677 mmHg 21%
    15:00 +18°C° 0 mm 1 mps 676 mmHg 21%
    16:00 +16°C° 0 mm 1 mps 676 mmHg 22%
    17:00 +15°C° 0 mm 1 mps 676 mmHg 24%
    18:00 +14°C° 0 mm 1 mps 676 mmHg 27%
    19:00 +12°C° 0 mm 1 mps 676 mmHg 29%
    20:00 +12°C° 0 mm 1 mps 676 mmHg 30%
    21:00 +12°C° 0 mm 1 mps 676 mmHg 30%
    22:00 +10°C° 0 mm 0 mps 676 mmHg 31%
    23:00 +10°C° 0 mm 0 mps 676 mmHg 31%
    Show more